[[[{"header":{"parameterUnit":"kt","parameterCategory":2,"dx":1,"dy":1,"la1":30.253999710083008,"la2":30.299108505249023,"lo1":-89.0895004272461,"lo2":-89.04439544677734,"nx":28,"ny":28,"refTime":"2022-09-21T21:00:00:Z","depth":0,"parameterNumber":1,"parameterNumberName":"U-component_of_WINDS"},"data":[2.2933,2.2971,2.2981,2.3028,2.3046,2.3079,2.3094,2.3114,2.3133,2.3173,2.3198,2.3212,2.3234,2.3265,2.3292,2.3297,2.3307,2.3312,2.3317,2.3288,2.3284,2.3281,2.3272,2.3314,2.3314,2.3345,2.3345,2.3345,2.2907,2.2925,2.2954,2.2989,2.3013,2.3015,2.3042,2.3061,2.3091,2.3115,2.3141,2.3176,2.3206,2.3228,2.3257,2.3273,2.3275,2.328,2.3279,2.3282,2.3251,2.3242,2.3278,2.3278,2.3278,2.3278,2.3278,2.3278,2.2863,2.2885,2.2913,2.2944,2.2965,2.2988,2.3011,2.3028,2.3056,2.309,2.3097,2.3131,2.3157,2.3199,2.3215,2.3241,2.3237,2.3245,2.3247,2.3249,2.3248,2.3198,2.3247,2.3247,2.3247,2.3246,2.3246,0,2.2833,2.284,2.287,2.2901,2.2925,2.2951,2.2976,2.2991,2.3011,2.3033,2.3065,2.3086,2.3126,2.3156,2.3188,2.3203,2.3206,2.3209,2.3214,2.321,2.3201,2.3204,2.3151,2.3207,2.3207,2.3207,2.3206,2.3206,2.2786,2.2812,2.2848,2.2866,2.2884,2.2914,2.2934,2.295,2.297,2.3004,2.3022,2.3054,2.3081,2.3131,2.315,2.318,2.3182,2.3201,2.3186,2.318,2.3179,2.3177,2.3178,2.3203,2.3204,2.3204,2.3204,0,2.2758,2.2777,2.2822,2.2855,2.2864,2.289,2.2917,2.294,2.2955,2.2989,2.2998,2.3021,2.3052,2.3069,2.3109,2.3117,2.3156,2.3158,2.3146,2.3147,2.3164,2.3162,2.3224,2.3231,2.3191,2.3191,2.3192,0,2.2725,2.2759,2.2785,2.281,2.2848,2.2864,2.29,2.2917,2.2941,2.2967,2.2975,2.3,2.3018,2.3045,2.3057,2.3092,2.31,2.3107,2.311,2.3106,2.3105,2.3115,2.3112,2.3117,2.3117,2.3117,2.3116,0,2.2678,2.2733,2.2774,2.279,2.2829,2.2847,2.2864,2.2892,2.2911,2.294,2.2952,2.2985,2.3002,2.3026,2.304,2.3029,2.3085,2.3073,2.3092,2.3091,2.3102,2.3101,2.3153,2.3116,2.3116,2.3116,2.3116,0,2.2653,2.2684,2.2741,2.2773,2.2787,2.2814,2.2847,2.2875,2.2903,2.2913,2.2935,2.2942,2.2977,2.2963,2.301,2.2991,2.3007,2.3017,2.3019,2.3022,2.3005,2.3029,2.3079,2.3083,2.3025,2.3025,2.3024,0,2.2592,2.2657,2.2671,2.2726,2.2757,2.2763,2.2794,2.282,2.2835,2.2863,2.288,2.2912,2.2905,2.2918,2.2939,2.2957,2.2982,2.2955,2.2991,2.2992,2.2981,2.3028,2.303,2.3066,2.3015,2.3016,2.3016,0,2.2547,2.2597,2.2606,2.2624,2.2663,2.269,2.2725,2.2762,2.2779,2.2809,2.2837,2.2885,2.2881,2.2902,2.2911,2.2933,2.2965,2.2926,2.2927,2.293,2.3013,2.3014,2.302,2.2967,2.2968,2.2969,2.3009,0,2.2501,2.2537,2.2563,2.2605,2.263,2.2666,2.2686,2.2709,2.2715,2.2731,2.2775,2.2802,2.2839,2.2852,2.2859,2.2903,2.2898,2.2895,2.2881,2.2912,2.2926,2.2931,2.2859,2.2859,2.2859,2.2858,0,0,2.2436,2.2489,2.2506,2.2542,2.2563,2.257,2.2607,2.2628,2.2672,2.2686,2.2679,2.2749,2.2772,2.2823,2.2834,2.2851,2.2859,2.2848,2.2898,2.2902,2.2906,2.292,2.2926,2.2858,2.2858,2.2858,2.2858,0,2.2424,2.245,2.2487,2.251,2.2546,2.2562,2.257,2.2607,2.2618,2.2664,2.2667,2.2696,2.2754,2.2776,2.2795,2.2843,2.2844,2.2853,2.2871,2.2895,2.29,2.2904,2.2918,2.2924,2.2857,2.2857,2.2857,0,2.2381,2.2409,2.243,2.2482,2.2505,2.2539,2.253,2.2567,2.2591,2.2597,2.2641,2.2659,2.2692,2.2739,2.2761,2.2755,2.2828,2.281,2.2812,2.2814,2.2838,2.2844,2.2849,2.2783,2.2783,2.2782,0,0,2.2367,2.2402,2.2437,2.2481,2.2495,2.252,2.254,2.2549,2.2579,2.2591,2.2615,2.2643,2.2676,2.2698,2.273,2.278,2.2787,2.28,2.2804,2.2806,2.281,2.2835,2.284,2.2781,2.2781,2.2781,0,0,2.236,2.2403,2.2405,2.2459,2.2487,2.2524,2.2549,2.2552,2.2584,2.2582,2.2599,2.2607,2.2652,2.267,2.265,2.2725,2.2712,2.2717,2.2712,2.2717,2.272,2.2714,2.2644,0,0,0,0,0,2.2358,2.2398,2.2399,2.2411,2.2478,2.2523,2.2532,2.2547,2.2537,2.2556,2.2575,2.2576,2.2662,2.2645,2.2656,2.2678,2.2764,2.2767,2.277,2.2775,2.278,2.2784,0,0,0,0,0,0,2.2363,2.2378,2.2398,2.2437,2.2452,2.2522,2.2508,2.2513,2.2535,2.2534,2.2572,2.2577,2.2591,2.264,2.265,2.267,2.2641,2.2766,2.2768,2.277,2.2777,2.2781,2.2784,0,0,0,0,0,2.2367,2.2379,2.2482,2.2436,2.2449,2.2479,2.2506,2.251,2.2528,2.2559,2.2564,2.2537,2.2591,2.26,2.2646,2.2665,2.2634,2.2638,2.2767,2.2769,2.2771,2.2779,0,0,0,0,0,0,2.237,2.2383,2.2485,2.2489,2.2423,2.2475,2.2484,2.2508,2.2552,2.2557,2.2525,2.2524,2.2591,2.2599,2.2606,2.2663,2.2629,2.2632,2.2635,2.2769,2.277,2.2772,0,0,0,0,0,0,2.2377,2.2387,2.2487,2.2469,2.2472,2.2472,2.248,2.2521,2.2552,2.2515,2.2515,2.2524,2.258,2.2598,2.2603,2.2668,2.2624,2.2628,2.263,2.2632,2.277,2.2771,0,0,0,0,0,0,2.2381,2.239,2.2468,2.247,2.2473,2.2524,2.2509,2.2575,2.2538,2.2513,2.2535,2.2533,2.2579,2.2585,2.2601,2.2664,2.2667,2.2624,2.2627,2.2629,2.263,0,0,0,0,0,0,0,2.2385,2.2323,2.2458,2.2471,2.2473,2.253,2.2531,2.2533,2.2537,2.2536,2.2535,2.2534,2.2604,2.2608,2.2612,2.266,0,0,2.2624,2.2626,0,0,0,0,0,0,0,0,2.232,2.2323,2.2458,2.2459,2.246,2.253,2.2531,2.2532,2.2537,2.2536,2.2535,2.2534,2.2605,2.2608,2.2612,0,0,0,0,0,0,0,0,0,0,0,0,0,0,0,2.2459,2.2459,0,2.2531,2.2531,2.2532,2.2537,2.2536,2.2535,2.2535,2.2606,2.2609,2.2611,0,0,0,0,0,0,0,0,0,0,0,0,0,0,0,0,0,0,0,0,0,0,0,0,0,0,0,0,0,0,0,0,0,0,0,0,0,0,0,0,0,0,0,0,0,0,0,0,0,0,0,0,0,0,0,0,0,0,0,0,0,0,0,0,0,0,0,0,0]}],[{"header":{"parameterUnit":"kt","parameterCategory":2,"dx":1,"dy":1,"la1":30.253999710083008,"la2":30.299108505249023,"lo1":-89.0895004272461,"lo2":-89.04439544677734,"nx":28,"ny":28,"refTime":"2022-09-21T21:00:00:Z","depth":0,"parameterNumber":2,"parameterNumberName":"V-component_of_WINDS"},"data":[1.8724,1.8643,1.8582,1.846,1.8384,1.8288,1.8234,1.8156,1.8078,1.7953,1.7869,1.7795,1.7688,1.7569,1.7472,1.744,1.7402,1.7419,1.7378,1.7365,1.7359,1.7353,1.737,1.7412,1.7412,1.7399,1.7399,1.7399,1.8718,1.8644,1.8563,1.8442,1.837,1.8317,1.8215,1.8157,1.8071,1.7974,1.7888,1.7771,1.7669,1.7554,1.7444,1.7399,1.7365,1.7373,1.7374,1.7358,1.7343,1.7361,1.7402,1.7402,1.7402,1.7402,1.7402,1.7402,1.8692,1.8647,1.8538,1.8448,1.837,1.8288,1.8232,1.8145,1.8061,1.7943,1.7883,1.7783,1.767,1.7505,1.7433,1.735,1.7328,1.7316,1.7312,1.731,1.7316,1.7341,1.7328,1.7327,1.7327,1.7327,1.7326,0,1.8653,1.8605,1.8523,1.8423,1.8353,1.8268,1.8179,1.8142,1.8014,1.795,1.785,1.7782,1.7644,1.754,1.7422,1.7347,1.7281,1.7268,1.7258,1.7285,1.7325,1.7301,1.7277,1.7268,1.7267,1.7267,1.7266,1.7266,1.862,1.8575,1.8431,1.8381,1.8318,1.8239,1.8177,1.8069,1.8009,1.788,1.7842,1.7738,1.7649,1.7495,1.7388,1.7283,1.7249,1.7252,1.7232,1.7261,1.7245,1.7249,1.7242,1.7258,1.7259,1.726,1.726,0,1.8606,1.8507,1.8416,1.8277,1.824,1.8197,1.8076,1.8023,1.7943,1.7858,1.7832,1.7704,1.7606,1.7497,1.7362,1.7307,1.7226,1.7196,1.7264,1.7251,1.7241,1.7243,1.7232,1.7224,1.7181,1.7182,1.7182,0,1.8537,1.8481,1.8335,1.8288,1.822,1.8114,1.8049,1.7973,1.7877,1.7809,1.7719,1.7657,1.7528,1.7449,1.7368,1.7282,1.7257,1.7209,1.7188,1.7216,1.7222,1.7179,1.7176,1.7145,1.7145,1.7145,1.7145,0,1.8526,1.8382,1.8305,1.8255,1.8101,1.8066,1.7999,1.789,1.783,1.7735,1.7694,1.759,1.7532,1.7451,1.7349,1.734,1.7242,1.7208,1.7193,1.7195,1.7175,1.7178,1.7198,1.7146,1.7146,1.7146,1.7146,0,1.8454,1.8365,1.8269,1.8137,1.8104,1.8052,1.7944,1.7875,1.7766,1.7713,1.7637,1.7563,1.7481,1.7454,1.7338,1.7355,1.7302,1.7249,1.7246,1.723,1.7202,1.7226,1.7258,1.7256,1.7217,1.7218,1.7218,0,1.8466,1.8343,1.8252,1.8161,1.8089,1.7994,1.7934,1.7841,1.7766,1.769,1.7605,1.7519,1.7477,1.7434,1.7391,1.7298,1.7277,1.7298,1.7183,1.718,1.7215,1.7243,1.7275,1.7264,1.7224,1.7224,1.7223,0,1.8463,1.8279,1.827,1.8208,1.8072,1.801,1.7942,1.7835,1.779,1.7696,1.7633,1.751,1.7472,1.7403,1.7331,1.7292,1.7288,1.7256,1.7251,1.7263,1.7219,1.7249,1.7248,1.7248,1.7247,1.7246,1.7228,0,1.8373,1.8299,1.8271,1.8141,1.8077,1.8016,1.7904,1.7851,1.779,1.7712,1.7618,1.7512,1.7399,1.737,1.7309,1.7256,1.7247,1.7208,1.7172,1.7193,1.7183,1.718,1.7194,1.7193,1.7191,1.719,0,0,1.8408,1.8301,1.8203,1.8135,1.8075,1.7977,1.7921,1.785,1.771,1.7669,1.7649,1.7461,1.7375,1.7272,1.727,1.7225,1.7203,1.7201,1.7184,1.7184,1.7184,1.7176,1.7174,1.7187,1.7187,1.7186,1.7186,0,1.8352,1.8275,1.8223,1.8147,1.803,1.7951,1.7939,1.7805,1.7752,1.7662,1.7579,1.7508,1.7362,1.7281,1.722,1.7211,1.715,1.7186,1.7219,1.7174,1.7176,1.7177,1.717,1.717,1.7182,1.7183,1.7183,0,1.8328,1.8232,1.8196,1.8059,1.7981,1.7909,1.7846,1.7773,1.7717,1.761,1.7521,1.7446,1.7329,1.7248,1.7207,1.7186,1.7109,1.7114,1.712,1.7112,1.7062,1.7065,1.7067,1.7039,1.7039,1.7039,0,0,1.8294,1.8227,1.8089,1.8038,1.7996,1.7877,1.7828,1.7762,1.7662,1.7622,1.7525,1.7428,1.734,1.7285,1.7197,1.7125,1.709,1.7101,1.7107,1.7113,1.7109,1.7062,1.7064,1.7038,1.7038,1.7038,0,0,1.8277,1.8117,1.8075,1.8003,1.7913,1.7771,1.7742,1.7685,1.7596,1.7591,1.7472,1.7441,1.7363,1.7292,1.7305,1.7182,1.7149,1.7143,1.7231,1.7238,1.7244,1.7262,1.7222,0,0,0,0,0,1.8164,1.8137,1.8101,1.8072,1.7897,1.7792,1.7768,1.7673,1.7652,1.7631,1.7541,1.748,1.7274,1.7283,1.7254,1.724,1.7038,1.7038,1.7038,1.7133,1.7141,1.7148,0,0,0,0,0,0,1.8152,1.8118,1.8101,1.7961,1.792,1.7792,1.7735,1.7708,1.7652,1.7642,1.75,1.7475,1.7389,1.7291,1.7266,1.7255,1.723,1.7038,1.7038,1.7038,1.7136,1.7143,1.7149,0,0,0,0,0,1.8142,1.8114,1.7859,1.796,1.7925,1.7791,1.7736,1.7712,1.7666,1.7527,1.7501,1.76,1.7392,1.7364,1.7276,1.7269,1.7246,1.7237,1.7038,1.7038,1.7038,1.7139,0,0,0,0,0,0,1.8134,1.809,1.785,1.7835,1.7964,1.7796,1.7767,1.7717,1.7553,1.7527,1.7621,1.7615,1.7393,1.7371,1.7351,1.7279,1.7259,1.725,1.7245,1.7038,1.7038,1.7038,0,0,0,0,0,0,1.8105,1.8079,1.7842,1.7852,1.7838,1.7802,1.7776,1.7686,1.7552,1.7656,1.7646,1.762,1.7422,1.7377,1.736,1.7224,1.7269,1.7261,1.7255,1.7251,1.7038,1.7038,0,0,0,0,0,0,1.8092,1.807,1.7855,1.7845,1.7832,1.7662,1.772,1.7544,1.7566,1.7664,1.7564,1.7564,1.7429,1.741,1.7367,1.7238,1.7228,1.7269,1.7263,1.7259,1.7256,0,0,0,0,0,0,0,1.8082,1.8253,1.7936,1.7838,1.7827,1.7702,1.7698,1.7694,1.7565,1.7565,1.7564,1.7564,1.7318,1.7309,1.7299,1.725,0,0,1.727,1.7266,0,0,0,0,0,0,0,0,1.826,1.8255,1.7936,1.7933,1.793,1.7701,1.7698,1.7694,1.7565,1.7565,1.7565,1.7564,1.7315,1.7308,1.73,0,0,0,0,0,0,0,0,0,0,0,0,0,0,0,1.7935,1.7933,0,1.77,1.7698,1.7695,1.7565,1.7565,1.7565,1.7564,1.7313,1.7307,1.7301,0,0,0,0,0,0,0,0,0,0,0,0,0,0,0,0,0,0,0,0,0,0,0,0,0,0,0,0,0,0,0,0,0,0,0,0,0,0,0,0,0,0,0,0,0,0,0,0,0,0,0,0,0,0,0,0,0,0,0,0,0,0,0,0,0,0,0,0,0]}]]]